Cloud_Cover
7 34 76 57 98 6 58 100 99 3 2 0 0 0 2 58 12 30 74 89 76 26 96 6 75 92 40 81 100 87 5 4 100 31 93 90 98 94 100 100 100 100 100
5 5 7 5 5 4 72 38 5 4 0 5 2 5 26 50 91 3 5 6 100 100 100 96 65 76 95 53 100 96 5 5 70 100 35 100 92 100 100 100 100 100 100
5 78 80 32 52 68 5 5 4 0 0 0 3 5 86 89 81 81 7 55 70 95 100 77 96 83 80 79 98 9 30 49 50 89 100 98 99 100 100 100 100 100 100
0 6 10 62 35 38 73 23 95 100 30 6 0 0 6 32 83 100 100 99 99 34 100 95 96 95 100 66 43 4 5 24 59 55 96 74 100 100 100 100 100 100 100
10 2 0 3 4 56 84 100 100 100 100 100 56 5 5 13 79 77 97 37 84 75 100 100 67 73 82 73 41 5 5 74 99 10 10 45 100 100 100 100 100 100 100
100 31 1 0 2 28 100 100 100 100 100 100 100 88 88 89 60 82 44 19 91 100 100 96 64 74 63 40 92 100 44 5 60 43 54 88 61 88 100 100 100 100 100
100 100 1 6 2 17 100 100 100 100 100 100 100 100 100 100 83 40 95 89 100 100 100 100 28 58 62 87 67 80 84 5 4 5 5 100 48 42 98 100 100 100 100
12 48 0 0 9 52 48 100 100 100 100 100 100 100 100 100 100 100 100 100 100 100 100 90 99 91 51 10 50 50 14 20 22 74 22 14 97 100 100 100 100 100 100
49 26 40 22 10 59 56 90 100 100 100 100 100 100 100 100 100 100 100 100 100 100 100 74 100 100 80 75 24 13 24 78 96 76 100 100 98 94 100 100 100 100 100
100 64 97 42 22 28 33 100 100 100 100 100 100 100 100 100 100 100 100 100 100 100 100 100 98 100 100 100 100 26 85 91 97 100 100 100 100 100 100 100 100 100 100
4 46 70 100 71 100 60 100 100 100 100 100 100 100 100 100 100 100 100 100 100 100 100 100 99 95 100 100 100 100 44 100 99 100 100 100 100 100 100 100 100 100 100
39 85 91 100 100 100 100 100 100 100 100 100 100 100 100 100 100 100 100 100 100 100 100 100 85 88 95 100 100 100 100 100 98 100 100 100 100 100 100 100 100 100 100
100 100 100 100 100 100 100 100 100 100 100 100 100 100 100 100 100 100 100 100 100 100 100 100 100 100 100 100 100 100 100 100 100 90 100 100 96 90 100 100 100 100 100
99 93 99 100 100 100 100 100 100 100 100 100 100 100 100 100 100 100 100 100 100 100 100 100 100 100 100 100 100 100 100 100 100 100 100 84 91 42 32 54 73 37 80
99 88 92 100 100 100 100 100 100 100 100 100 100 100 100 100 100 100 100 100 100 100 100 100 100 100 100 100 100 100 100 100 100 100 100 93 76 95 76 84 95 84 69
24 40 49 82 100 100 100 100 100 100 100 100 100 100 100 100 100 100 100 100 100 100 100 100 100 100 100 100 100 100 100 100 99 100 100 100 100 100 100 98 100 86 89
29 49 53 99 100 100 100 100 100 100 100 100 100 100 100 100 100 100 100 100 100 100 100 100 100 100 100 100 100 100 100 100 100 100 100 100 100 100 100 100 100 100 100
100 99 75 100 50 31 100 100 100 100 100 100 100 100 100 100 100 100 100 100 100 100 100 100 100 100 100 100 100 100 100 100 100 100 100 100 100 100 100 100 100 100 100
100 43 25 69 98 88 100 100 100 100 100 100 100 100 100 100 100 100 100 100 100 100 100 100 100 100 100 100 100 100 100 100 100 100 100 100 100 100 100 100 100 90 91
100 96 23 11 8 67 96 100 100 100 100 100 100 100 100 100 100 100 100 100 100 100 100 100 100 100 100 100 100 100 100 100 100 100 100 100 100 100 100 100 99 100 100
100 100 100 100 22 43 100 100 100 100 100 100 100 100 100 100 100 100 100 100 100 100 100 100 100 100 100 100 100 100 100 100 100 100 100 100 100 100 100 100 100 100 100
100 100 100 100 95 98 100 98 100 77 57 92 100 100 100 100 100 98 100 100 100 100 100 100 100 100 100 100 100 100 100 100 100 100 100 100 100 100 100 100 100 100 97
100 100 100 100 100 100 100 100 100 100 100 99 80 84 94 90 100 43 90 100 100 100 100 100 100 100 100 100 100 100 100 100 100 100 100 79 19 54 13 10 11 1 0
93 96 83 100 100 100 100 100 100 46 95 100 100 100 100 100 100 76 9 5 52 100 100 100 100 100 100 100 100 94 30 23 5 4 0 0 0 0 0 1 4 2 5
100 84 62 76 95 100 100 100 99 83 11 7 68 92 80 34 5 3 0 0 0 0 0 0 1 0 0 0 0 0 0 0 0 4 5 6 4 2 50 100 5 5 5
20 40 94 100 98 100 100 95 42 5 5 0 0 0 0 0 0 0 0 0 0 0 0 2 2 1 2 3 8 3 4 1 2 5 79 99 32 13 100 76 12 5 5